owner,sensor,date,latitude,longitude,vertical_datum,sea_water_temperature,qcFlag 
WAVCIS,ioos:station:WAVCIS:CSI06:1,2010-09-01T00:00:00Z,28.8667,-90.4833,100.0,29.13,11111222 
WAVCIS,ioos:station:WAVCIS:CSI06:1,2010-09-01T01:00:00Z,28.8667,-90.4833,100.0,29.12,11111222 
WAVCIS,ioos:station:WAVCIS:CSI06:1,2010-09-01T02:00:00Z,28.8667,-90.4833,100.0,29.11,11111222 
WAVCIS,ioos:station:WAVCIS:CSI06:1,2010-09-01T03:00:00Z,28.8667,-90.4833,100.0,29.1,11111222 
WAVCIS,ioos:station:WAVCIS:CSI06:1,2010-09-01T04:00:00Z,28.8667,-90.4833,100.0,29.03,11111222 
WAVCIS,ioos:station:WAVCIS:CSI06:1,2010-09-01T05:00:00Z,28.8667,-90.4833,100.0,29.01,11111222 
WAVCIS,ioos:station:WAVCIS:CSI06:1,2010-09-01T06:00:00Z,28.8667,-90.4833,100.0,28.98,11111222 
WAVCIS,ioos:station:WAVCIS:CSI06:1,2010-09-01T07:00:00Z,28.8667,-90.4833,100.0,28.91,11111222 
WAVCIS,ioos:station:WAVCIS:CSI06:1,2010-09-01T08:00:00Z,28.8667,-90.4833,100.0,28.9,11111222 
WAVCIS,ioos:station:WAVCIS:CSI06:1,2010-09-01T09:00:00Z,28.8667,-90.4833,100.0,29.11,11111222 
WAVCIS,ioos:station:WAVCIS:CSI06:1,2010-09-01T10:00:00Z,28.8667,-90.4833,100.0,29.07,11111222 
WAVCIS,ioos:station:WAVCIS:CSI06:1,2010-09-01T11:00:00Z,28.8667,-90.4833,100.0,29.07,11111222 
WAVCIS,ioos:station:WAVCIS:CSI06:1,2010-09-01T12:00:00Z,28.8667,-90.4833,100.0,29.08,11111222 
WAVCIS,ioos:station:WAVCIS:CSI06:1,2010-09-01T13:00:00Z,28.8667,-90.4833,100.0,29.06,11111222 
WAVCIS,ioos:station:WAVCIS:CSI06:1,2010-09-01T14:00:00Z,28.8667,-90.4833,100.0,29.04,11111222 
WAVCIS,ioos:station:WAVCIS:CSI06:1,2010-09-01T15:00:00Z,28.8667,-90.4833,100.0,29.06,11111222 
WAVCIS,ioos:station:WAVCIS:CSI06:1,2010-09-01T16:00:00Z,28.8667,-90.4833,100.0,29.1,11111222 
WAVCIS,ioos:station:WAVCIS:CSI06:1,2010-09-01T17:00:00Z,28.8667,-90.4833,100.0,29.15,11111222 
WAVCIS,ioos:station:WAVCIS:CSI06:1,2010-09-01T18:00:00Z,28.8667,-90.4833,100.0,29.16,11111222 
WAVCIS,ioos:station:WAVCIS:CSI06:1,2010-09-01T19:00:00Z,28.8667,-90.4833,100.0,29.21,11111222 
WAVCIS,ioos:station:WAVCIS:CSI06:1,2010-09-01T20:00:00Z,28.8667,-90.4833,100.0,29.23,11111222 
WAVCIS,ioos:station:WAVCIS:CSI06:1,2010-09-01T21:00:00Z,28.8667,-90.4833,100.0,29.27,11111222 
WAVCIS,ioos:station:WAVCIS:CSI06:1,2010-09-01T22:00:00Z,28.8667,-90.4833,100.0,29.26,11111222 
WAVCIS,ioos:station:WAVCIS:CSI06:1,2010-09-01T23:00:00Z,28.8667,-90.4833,100.0,29.22,11111222 
WAVCIS,ioos:station:WAVCIS:CSI06:1,2010-09-02T00:00:00Z,28.8667,-90.4833,100.0,29.25,11111222 
WAVCIS,ioos:station:WAVCIS:CSI06:1,2010-09-02T01:00:00Z,28.8667,-90.4833,100.0,29.3,11111222 
WAVCIS,ioos:station:WAVCIS:CSI06:1,2010-09-02T02:00:00Z,28.8667,-90.4833,100.0,29.21,11111222 
WAVCIS,ioos:station:WAVCIS:CSI06:1,2010-09-02T03:00:00Z,28.8667,-90.4833,100.0,29.17,11111222 
WAVCIS,ioos:station:WAVCIS:CSI06:1,2010-09-02T04:00:00Z,28.8667,-90.4833,100.0,29.13,11111222 
WAVCIS,ioos:station:WAVCIS:CSI06:1,2010-09-02T05:00:00Z,28.8667,-90.4833,100.0,29.07,11111222 
WAVCIS,ioos:station:WAVCIS:CSI06:1,2010-09-02T06:00:00Z,28.8667,-90.4833,100.0,29.02,11111222 
WAVCIS,ioos:station:WAVCIS:CSI06:1,2010-09-02T07:00:00Z,28.8667,-90.4833,100.0,29.0,11111222 
WAVCIS,ioos:station:WAVCIS:CSI06:1,2010-09-02T08:00:00Z,28.8667,-90.4833,100.0,29.01,11111222 
WAVCIS,ioos:station:WAVCIS:CSI06:1,2010-09-02T09:00:00Z,28.8667,-90.4833,100.0,29.04,11111222 
WAVCIS,ioos:station:WAVCIS:CSI06:1,2010-09-02T10:00:00Z,28.8667,-90.4833,100.0,28.99,11111222 
WAVCIS,ioos:station:WAVCIS:CSI06:1,2010-09-02T11:00:00Z,28.8667,-90.4833,100.0,29.03,11111222 
WAVCIS,ioos:station:WAVCIS:CSI06:1,2010-09-02T12:00:00Z,28.8667,-90.4833,100.0,28.99,11111222 
WAVCIS,ioos:station:WAVCIS:CSI06:1,2010-09-02T13:00:00Z,28.8667,-90.4833,100.0,28.99,11111222 
WAVCIS,ioos:station:WAVCIS:CSI06:1,2010-09-02T14:00:00Z,28.8667,-90.4833,100.0,29.03,11111222 
WAVCIS,ioos:station:WAVCIS:CSI06:1,2010-09-02T15:00:00Z,28.8667,-90.4833,100.0,29.02,11111222 
WAVCIS,ioos:station:WAVCIS:CSI06:1,2010-09-02T16:00:00Z,28.8667,-90.4833,100.0,29.02,11111222 
WAVCIS,ioos:station:WAVCIS:CSI06:1,2010-09-02T17:00:00Z,28.8667,-90.4833,100.0,29.02,11111222 
WAVCIS,ioos:station:WAVCIS:CSI06:1,2010-09-02T18:00:00Z,28.8667,-90.4833,100.0,29.09,11111222 
WAVCIS,ioos:station:WAVCIS:CSI06:1,2010-09-02T19:00:00Z,28.8667,-90.4833,100.0,29.13,11111222 
WAVCIS,ioos:station:WAVCIS:CSI06:1,2010-09-02T20:00:00Z,28.8667,-90.4833,100.0,29.26,11111222 
WAVCIS,ioos:station:WAVCIS:CSI06:1,2010-09-02T21:00:00Z,28.8667,-90.4833,100.0,29.22,11111222 
WAVCIS,ioos:station:WAVCIS:CSI06:1,2010-09-02T22:00:00Z,28.8667,-90.4833,100.0,29.21,11111222 
WAVCIS,ioos:station:WAVCIS:CSI06:1,2010-09-02T23:00:00Z,28.8667,-90.4833,100.0,29.38,11111222 
WAVCIS,ioos:station:WAVCIS:CSI06:1,2010-09-03T00:00:00Z,28.8667,-90.4833,100.0,29.49,11111222 
WAVCIS,ioos:station:WAVCIS:CSI06:1,2010-09-03T01:00:00Z,28.8667,-90.4833,100.0,29.44,11111222 
WAVCIS,ioos:station:WAVCIS:CSI06:1,2010-09-03T02:00:00Z,28.8667,-90.4833,100.0,29.24,11111222 
WAVCIS,ioos:station:WAVCIS:CSI06:1,2010-09-03T03:00:00Z,28.8667,-90.4833,100.0,29.41,11111222 
WAVCIS,ioos:station:WAVCIS:CSI06:1,2010-09-03T04:00:00Z,28.8667,-90.4833,100.0,29.35,11111222 
WAVCIS,ioos:station:WAVCIS:CSI06:1,2010-09-03T05:00:00Z,28.8667,-90.4833,100.0,29.31,11111222 
WAVCIS,ioos:station:WAVCIS:CSI06:1,2010-09-03T06:00:00Z,28.8667,-90.4833,100.0,29.2,11111222 
WAVCIS,ioos:station:WAVCIS:CSI06:1,2010-09-03T07:00:00Z,28.8667,-90.4833,100.0,29.18,11111222 
WAVCIS,ioos:station:WAVCIS:CSI06:1,2010-09-03T08:00:00Z,28.8667,-90.4833,100.0,29.18,11111222 
WAVCIS,ioos:station:WAVCIS:CSI06:1,2010-09-03T09:00:00Z,28.8667,-90.4833,100.0,29.17,11111222 
WAVCIS,ioos:station:WAVCIS:CSI06:1,2010-09-03T10:00:00Z,28.8667,-90.4833,100.0,29.14,11111222 
WAVCIS,ioos:station:WAVCIS:CSI06:1,2010-09-03T11:00:00Z,28.8667,-90.4833,100.0,29.15,11111222 
WAVCIS,ioos:station:WAVCIS:CSI06:1,2010-09-03T12:00:00Z,28.8667,-90.4833,100.0,29.16,11111222 
WAVCIS,ioos:station:WAVCIS:CSI06:1,2010-09-03T13:00:00Z,28.8667,-90.4833,100.0,29.15,11111222 
WAVCIS,ioos:station:WAVCIS:CSI06:1,2010-09-03T14:00:00Z,28.8667,-90.4833,100.0,29.22,11111222 
WAVCIS,ioos:station:WAVCIS:CSI06:1,2010-09-03T15:00:00Z,28.8667,-90.4833,100.0,29.26,11111222 
WAVCIS,ioos:station:WAVCIS:CSI06:1,2010-09-03T16:00:00Z,28.8667,-90.4833,100.0,29.24,11111222 
WAVCIS,ioos:station:WAVCIS:CSI06:1,2010-09-03T17:00:00Z,28.8667,-90.4833,100.0,29.39,11111222 
WAVCIS,ioos:station:WAVCIS:CSI06:1,2010-09-03T18:00:00Z,28.8667,-90.4833,100.0,29.38,11111222 
WAVCIS,ioos:station:WAVCIS:CSI06:1,2010-09-03T19:00:00Z,28.8667,-90.4833,100.0,29.37,11111222 
WAVCIS,ioos:station:WAVCIS:CSI06:1,2010-09-03T20:00:00Z,28.8667,-90.4833,100.0,29.32,11111222 
WAVCIS,ioos:station:WAVCIS:CSI06:1,2010-09-03T21:00:00Z,28.8667,-90.4833,100.0,29.47,11111222 
WAVCIS,ioos:station:WAVCIS:CSI06:1,2010-09-03T22:00:00Z,28.8667,-90.4833,100.0,29.39,11111222 
WAVCIS,ioos:station:WAVCIS:CSI06:1,2010-09-03T23:00:00Z,28.8667,-90.4833,100.0,29.48,11111222 
WAVCIS,ioos:station:WAVCIS:CSI06:1,2010-09-04T00:00:00Z,28.8667,-90.4833,100.0,29.35,11111222 
WAVCIS,ioos:station:WAVCIS:CSI06:1,2010-09-04T01:00:00Z,28.8667,-90.4833,100.0,29.27,11111222 
WAVCIS,ioos:station:WAVCIS:CSI06:1,2010-09-04T02:00:00Z,28.8667,-90.4833,100.0,29.37,11111222 
WAVCIS,ioos:station:WAVCIS:CSI06:1,2010-09-04T03:00:00Z,28.8667,-90.4833,100.0,29.35,11111222 
WAVCIS,ioos:station:WAVCIS:CSI06:1,2010-09-04T04:00:00Z,28.8667,-90.4833,100.0,29.31,11111222 
WAVCIS,ioos:station:WAVCIS:CSI06:1,2010-09-04T05:00:00Z,28.8667,-90.4833,100.0,29.25,11111222 
WAVCIS,ioos:station:WAVCIS:CSI06:1,2010-09-04T06:00:00Z,28.8667,-90.4833,100.0,29.21,11111222 
WAVCIS,ioos:station:WAVCIS:CSI06:1,2010-09-04T07:00:00Z,28.8667,-90.4833,100.0,29.14,11111222 
WAVCIS,ioos:station:WAVCIS:CSI06:1,2010-09-04T08:00:00Z,28.8667,-90.4833,100.0,29.12,11111222 
WAVCIS,ioos:station:WAVCIS:CSI06:1,2010-09-04T09:00:00Z,28.8667,-90.4833,100.0,29.09,11111222 
WAVCIS,ioos:station:WAVCIS:CSI06:1,2010-09-04T10:00:00Z,28.8667,-90.4833,100.0,29.05,11111222 
WAVCIS,ioos:station:WAVCIS:CSI06:1,2010-09-04T11:00:00Z,28.8667,-90.4833,100.0,29.07,11111222 
WAVCIS,ioos:station:WAVCIS:CSI06:1,2010-09-04T12:00:00Z,28.8667,-90.4833,100.0,28.98,11111222 
WAVCIS,ioos:station:WAVCIS:CSI06:1,2010-09-04T13:00:00Z,28.8667,-90.4833,100.0,28.93,11111222 
WAVCIS,ioos:station:WAVCIS:CSI06:1,2010-09-04T14:00:00Z,28.8667,-90.4833,100.0,28.95,11111222 
WAVCIS,ioos:station:WAVCIS:CSI06:1,2010-09-04T15:00:00Z,28.8667,-90.4833,100.0,28.84,11111222 
WAVCIS,ioos:station:WAVCIS:CSI06:1,2010-09-04T16:00:00Z,28.8667,-90.4833,100.0,28.57,11111222 
WAVCIS,ioos:station:WAVCIS:CSI06:1,2010-09-04T17:00:00Z,28.8667,-90.4833,100.0,28.94,11111222 
WAVCIS,ioos:station:WAVCIS:CSI06:1,2010-09-04T18:00:00Z,28.8667,-90.4833,100.0,29.1,11111222 
WAVCIS,ioos:station:WAVCIS:CSI06:1,2010-09-04T19:00:00Z,28.8667,-90.4833,100.0,29.12,11111222 
WAVCIS,ioos:station:WAVCIS:CSI06:1,2010-09-04T20:00:00Z,28.8667,-90.4833,100.0,29.17,11111222 
WAVCIS,ioos:station:WAVCIS:CSI06:1,2010-09-04T21:00:00Z,28.8667,-90.4833,100.0,29.24,11111222 
WAVCIS,ioos:station:WAVCIS:CSI06:1,2010-09-04T22:00:00Z,28.8667,-90.4833,100.0,29.25,11111222 
WAVCIS,ioos:station:WAVCIS:CSI06:1,2010-09-04T23:00:00Z,28.8667,-90.4833,100.0,29.22,11111222 
WAVCIS,ioos:station:WAVCIS:CSI06:1,2010-09-05T00:00:00Z,28.8667,-90.4833,100.0,29.2,11111222 
WAVCIS,ioos:station:WAVCIS:CSI06:1,2010-09-05T01:00:00Z,28.8667,-90.4833,100.0,29.27,11111222 
WAVCIS,ioos:station:WAVCIS:CSI06:1,2010-09-05T02:00:00Z,28.8667,-90.4833,100.0,29.34,11111222 
WAVCIS,ioos:station:WAVCIS:CSI06:1,2010-09-05T03:00:00Z,28.8667,-90.4833,100.0,29.3,11111222 
WAVCIS,ioos:station:WAVCIS:CSI06:1,2010-09-05T04:00:00Z,28.8667,-90.4833,100.0,29.28,11111222 
WAVCIS,ioos:station:WAVCIS:CSI06:1,2010-09-05T05:00:00Z,28.8667,-90.4833,100.0,29.16,11111222 
WAVCIS,ioos:station:WAVCIS:CSI06:1,2010-09-05T06:00:00Z,28.8667,-90.4833,100.0,29.24,11111222 
WAVCIS,ioos:station:WAVCIS:CSI06:1,2010-09-05T07:00:00Z,28.8667,-90.4833,100.0,29.25,11111222 
WAVCIS,ioos:station:WAVCIS:CSI06:1,2010-09-05T08:00:00Z,28.8667,-90.4833,100.0,29.31,11111222 
WAVCIS,ioos:station:WAVCIS:CSI06:1,2010-09-05T09:00:00Z,28.8667,-90.4833,100.0,29.19,11111222 
WAVCIS,ioos:station:WAVCIS:CSI06:1,2010-09-05T10:00:00Z,28.8667,-90.4833,100.0,29.07,11111222 
WAVCIS,ioos:station:WAVCIS:CSI06:1,2010-09-05T11:00:00Z,28.8667,-90.4833,100.0,28.98,11111222 
WAVCIS,ioos:station:WAVCIS:CSI06:1,2010-09-05T12:00:00Z,28.8667,-90.4833,100.0,28.95,11111222 
WAVCIS,ioos:station:WAVCIS:CSI06:1,2010-09-05T13:00:00Z,28.8667,-90.4833,100.0,28.91,11111222 
WAVCIS,ioos:station:WAVCIS:CSI06:1,2010-09-05T14:00:00Z,28.8667,-90.4833,100.0,28.91,11111222 
WAVCIS,ioos:station:WAVCIS:CSI06:1,2010-09-05T15:00:00Z,28.8667,-90.4833,100.0,29.04,11111222 
WAVCIS,ioos:station:WAVCIS:CSI06:1,2010-09-05T16:00:00Z,28.8667,-90.4833,100.0,29.02,11111222 
WAVCIS,ioos:station:WAVCIS:CSI06:1,2010-09-05T17:00:00Z,28.8667,-90.4833,100.0,29.07,11111222 
WAVCIS,ioos:station:WAVCIS:CSI06:1,2010-09-05T18:00:00Z,28.8667,-90.4833,100.0,29.1,11111222 
WAVCIS,ioos:station:WAVCIS:CSI06:1,2010-09-05T19:00:00Z,28.8667,-90.4833,100.0,29.1,11111222 
WAVCIS,ioos:station:WAVCIS:CSI06:1,2010-09-05T20:00:00Z,28.8667,-90.4833,100.0,29.11,11111222 
WAVCIS,ioos:station:WAVCIS:CSI06:1,2010-09-05T21:00:00Z,28.8667,-90.4833,100.0,29.12,11111222 
WAVCIS,ioos:station:WAVCIS:CSI06:1,2010-09-05T22:00:00Z,28.8667,-90.4833,100.0,29.13,11111222 
WAVCIS,ioos:station:WAVCIS:CSI06:1,2010-09-05T23:00:00Z,28.8667,-90.4833,100.0,29.14,11111222 
WAVCIS,ioos:station:WAVCIS:CSI06:1,2010-09-06T00:00:00Z,28.8667,-90.4833,100.0,29.15,11111222 
WAVCIS,ioos:station:WAVCIS:CSI06:1,2010-09-06T01:00:00Z,28.8667,-90.4833,100.0,29.1,11111222 
WAVCIS,ioos:station:WAVCIS:CSI06:1,2010-09-06T02:00:00Z,28.8667,-90.4833,100.0,29.08,11111222 
WAVCIS,ioos:station:WAVCIS:CSI06:1,2010-09-06T03:00:00Z,28.8667,-90.4833,100.0,29.06,11111222 
WAVCIS,ioos:station:WAVCIS:CSI06:1,2010-09-06T04:00:00Z,28.8667,-90.4833,100.0,29.03,11111222 
WAVCIS,ioos:station:WAVCIS:CSI06:1,2010-09-06T05:00:00Z,28.8667,-90.4833,100.0,29.0,11111222 
WAVCIS,ioos:station:WAVCIS:CSI06:1,2010-09-06T06:00:00Z,28.8667,-90.4833,100.0,28.99,11111222 
WAVCIS,ioos:station:WAVCIS:CSI06:1,2010-09-06T07:00:00Z,28.8667,-90.4833,100.0,28.96,11111222 
WAVCIS,ioos:station:WAVCIS:CSI06:1,2010-09-06T08:00:00Z,28.8667,-90.4833,100.0,28.94,11111222 
WAVCIS,ioos:station:WAVCIS:CSI06:1,2010-09-06T09:00:00Z,28.8667,-90.4833,100.0,28.93,11111222 
WAVCIS,ioos:station:WAVCIS:CSI06:1,2010-09-06T10:00:00Z,28.8667,-90.4833,100.0,28.93,11111222 
WAVCIS,ioos:station:WAVCIS:CSI06:1,2010-09-06T11:00:00Z,28.8667,-90.4833,100.0,28.91,11111222 
WAVCIS,ioos:station:WAVCIS:CSI06:1,2010-09-06T12:00:00Z,28.8667,-90.4833,100.0,28.91,11111222 
WAVCIS,ioos:station:WAVCIS:CSI06:1,2010-09-06T13:00:00Z,28.8667,-90.4833,100.0,28.91,11111222 
WAVCIS,ioos:station:WAVCIS:CSI06:1,2010-09-06T14:00:00Z,28.8667,-90.4833,100.0,28.91,11111222 
WAVCIS,ioos:station:WAVCIS:CSI06:1,2010-09-06T15:00:00Z,28.8667,-90.4833,100.0,28.94,11111222 
WAVCIS,ioos:station:WAVCIS:CSI06:1,2010-09-06T16:00:00Z,28.8667,-90.4833,100.0,28.94,11111222 
WAVCIS,ioos:station:WAVCIS:CSI06:1,2010-09-06T17:00:00Z,28.8667,-90.4833,100.0,28.97,11111222 
WAVCIS,ioos:station:WAVCIS:CSI06:1,2010-09-06T18:00:00Z,28.8667,-90.4833,100.0,29.01,11111222 
WAVCIS,ioos:station:WAVCIS:CSI06:1,2010-09-06T19:00:00Z,28.8667,-90.4833,100.0,29.08,11111222 
WAVCIS,ioos:station:WAVCIS:CSI06:1,2010-09-06T20:00:00Z,28.8667,-90.4833,100.0,29.1,11111222 
WAVCIS,ioos:station:WAVCIS:CSI06:1,2010-09-06T21:00:00Z,28.8667,-90.4833,100.0,29.15,11111222 
WAVCIS,ioos:station:WAVCIS:CSI06:1,2010-09-06T22:00:00Z,28.8667,-90.4833,100.0,29.18,11111222 
WAVCIS,ioos:station:WAVCIS:CSI06:1,2010-09-06T23:00:00Z,28.8667,-90.4833,100.0,29.21,11111222 
WAVCIS,ioos:station:WAVCIS:CSI06:1,2010-09-07T00:00:00Z,28.8667,-90.4833,100.0,29.21,11111222 
WAVCIS,ioos:station:WAVCIS:CSI06:1,2010-09-07T01:00:00Z,28.8667,-90.4833,100.0,29.21,11111222 
WAVCIS,ioos:station:WAVCIS:CSI06:1,2010-09-07T02:00:00Z,28.8667,-90.4833,100.0,29.21,11111222 
WAVCIS,ioos:station:WAVCIS:CSI06:1,2010-09-07T03:00:00Z,28.8667,-90.4833,100.0,29.19,11111222 
WAVCIS,ioos:station:WAVCIS:CSI06:1,2010-09-07T04:00:00Z,28.8667,-90.4833,100.0,29.18,11111222 
WAVCIS,ioos:station:WAVCIS:CSI06:1,2010-09-07T05:00:00Z,28.8667,-90.4833,100.0,29.15,11111222 
WAVCIS,ioos:station:WAVCIS:CSI06:1,2010-09-07T06:00:00Z,28.8667,-90.4833,100.0,29.12,11111222 
WAVCIS,ioos:station:WAVCIS:CSI06:1,2010-09-07T07:00:00Z,28.8667,-90.4833,100.0,29.12,11111222 
WAVCIS,ioos:station:WAVCIS:CSI06:1,2010-09-07T08:00:00Z,28.8667,-90.4833,100.0,29.08,11111222 
WAVCIS,ioos:station:WAVCIS:CSI06:1,2010-09-07T09:00:00Z,28.8667,-90.4833,100.0,29.05,11111222 
WAVCIS,ioos:station:WAVCIS:CSI06:1,2010-09-07T10:00:00Z,28.8667,-90.4833,100.0,29.03,11111222 
WAVCIS,ioos:station:WAVCIS:CSI06:1,2010-09-07T11:00:00Z,28.8667,-90.4833,100.0,29.0,11111222 
WAVCIS,ioos:station:WAVCIS:CSI06:1,2010-09-07T12:00:00Z,28.8667,-90.4833,100.0,28.98,11111222 
WAVCIS,ioos:station:WAVCIS:CSI06:1,2010-09-07T13:00:00Z,28.8667,-90.4833,100.0,29.01,11111222 
WAVCIS,ioos:station:WAVCIS:CSI06:1,2010-09-07T14:00:00Z,28.8667,-90.4833,100.0,29.01,11111222 
WAVCIS,ioos:station:WAVCIS:CSI06:1,2010-09-07T15:00:00Z,28.8667,-90.4833,100.0,29.02,11111222 
WAVCIS,ioos:station:WAVCIS:CSI06:1,2010-09-07T16:00:00Z,28.8667,-90.4833,100.0,29.05,11111222 
WAVCIS,ioos:station:WAVCIS:CSI06:1,2010-09-07T17:00:00Z,28.8667,-90.4833,100.0,29.07,11111222 
WAVCIS,ioos:station:WAVCIS:CSI06:1,2010-09-07T18:00:00Z,28.8667,-90.4833,100.0,29.1,11111222 
WAVCIS,ioos:station:WAVCIS:CSI06:1,2010-09-07T19:00:00Z,28.8667,-90.4833,100.0,29.12,11111222 
WAVCIS,ioos:station:WAVCIS:CSI06:1,2010-09-07T20:00:00Z,28.8667,-90.4833,100.0,29.14,11111222 
WAVCIS,ioos:station:WAVCIS:CSI06:1,2010-09-07T21:00:00Z,28.8667,-90.4833,100.0,29.23,11111222 
WAVCIS,ioos:station:WAVCIS:CSI06:1,2010-09-07T22:00:00Z,28.8667,-90.4833,100.0,29.23,11111222 
WAVCIS,ioos:station:WAVCIS:CSI06:1,2010-09-07T23:00:00Z,28.8667,-90.4833,100.0,29.28,11111222 
WAVCIS,ioos:station:WAVCIS:CSI06:1,2010-09-08T00:00:00Z,28.8667,-90.4833,100.0,29.32,11111222 
WAVCIS,ioos:station:WAVCIS:CSI06:1,2010-09-08T01:00:00Z,28.8667,-90.4833,100.0,29.36,11111222 
WAVCIS,ioos:station:WAVCIS:CSI06:1,2010-09-08T02:00:00Z,28.8667,-90.4833,100.0,29.34,11111222 
WAVCIS,ioos:station:WAVCIS:CSI06:1,2010-09-08T03:00:00Z,28.8667,-90.4833,100.0,29.34,11111222 
WAVCIS,ioos:station:WAVCIS:CSI06:1,2010-09-08T04:00:00Z,28.8667,-90.4833,100.0,29.33,11111222 
WAVCIS,ioos:station:WAVCIS:CSI06:1,2010-09-08T05:00:00Z,28.8667,-90.4833,100.0,29.27,11111222 
WAVCIS,ioos:station:WAVCIS:CSI06:1,2010-09-08T06:00:00Z,28.8667,-90.4833,100.0,29.1,11111222 
WAVCIS,ioos:station:WAVCIS:CSI06:1,2010-09-08T07:00:00Z,28.8667,-90.4833,100.0,28.38,11111222 
WAVCIS,ioos:station:WAVCIS:CSI06:1,2010-09-08T08:00:00Z,28.8667,-90.4833,100.0,28.66,11111222 
WAVCIS,ioos:station:WAVCIS:CSI06:1,2010-09-08T09:00:00Z,28.8667,-90.4833,100.0,28.5,11111222 
WAVCIS,ioos:station:WAVCIS:CSI06:1,2010-09-08T10:00:00Z,28.8667,-90.4833,100.0,28.52,11111222 
WAVCIS,ioos:station:WAVCIS:CSI06:1,2010-09-08T11:00:00Z,28.8667,-90.4833,100.0,28.5,11111222 
WAVCIS,ioos:station:WAVCIS:CSI06:1,2010-09-08T12:00:00Z,28.8667,-90.4833,100.0,28.38,11111222 
WAVCIS,ioos:station:WAVCIS:CSI06:1,2010-09-08T13:00:00Z,28.8667,-90.4833,100.0,28.38,11111222 
WAVCIS,ioos:station:WAVCIS:CSI06:1,2010-09-08T14:00:00Z,28.8667,-90.4833,100.0,28.31,11111222 
WAVCIS,ioos:station:WAVCIS:CSI06:1,2010-09-08T15:00:00Z,28.8667,-90.4833,100.0,28.32,11111222 
WAVCIS,ioos:station:WAVCIS:CSI06:1,2010-09-08T16:00:00Z,28.8667,-90.4833,100.0,28.38,11111222 
WAVCIS,ioos:station:WAVCIS:CSI06:1,2010-09-08T17:00:00Z,28.8667,-90.4833,100.0,28.43,11111222 
WAVCIS,ioos:station:WAVCIS:CSI06:1,2010-09-08T18:00:00Z,28.8667,-90.4833,100.0,28.54,11111222 
WAVCIS,ioos:station:WAVCIS:CSI06:1,2010-09-08T19:00:00Z,28.8667,-90.4833,100.0,28.7,11111222 
WAVCIS,ioos:station:WAVCIS:CSI06:1,2010-09-08T20:00:00Z,28.8667,-90.4833,100.0,28.6,11111222 
WAVCIS,ioos:station:WAVCIS:CSI06:1,2010-09-08T21:00:00Z,28.8667,-90.4833,100.0,28.62,11111222 
WAVCIS,ioos:station:WAVCIS:CSI06:1,2010-09-08T22:00:00Z,28.8667,-90.4833,100.0,28.69,11111222 
WAVCIS,ioos:station:WAVCIS:CSI06:1,2010-09-08T23:00:00Z,28.8667,-90.4833,100.0,28.77,11111222 
WAVCIS,ioos:station:WAVCIS:CSI06:1,2010-09-09T00:00:00Z,28.8667,-90.4833,100.0,28.79,11111222 
WAVCIS,ioos:station:WAVCIS:CSI06:1,2010-09-09T01:00:00Z,28.8667,-90.4833,100.0,28.75,11111222 
WAVCIS,ioos:station:WAVCIS:CSI06:1,2010-09-09T02:00:00Z,28.8667,-90.4833,100.0,28.76,11111222 
WAVCIS,ioos:station:WAVCIS:CSI06:1,2010-09-09T03:00:00Z,28.8667,-90.4833,100.0,28.72,11111222 
WAVCIS,ioos:station:WAVCIS:CSI06:1,2010-09-09T04:00:00Z,28.8667,-90.4833,100.0,28.66,11111222 
WAVCIS,ioos:station:WAVCIS:CSI06:1,2010-09-09T05:00:00Z,28.8667,-90.4833,100.0,28.58,11111222 
WAVCIS,ioos:station:WAVCIS:CSI06:1,2010-09-09T06:00:00Z,28.8667,-90.4833,100.0,28.55,11111222 
WAVCIS,ioos:station:WAVCIS:CSI06:1,2010-09-09T07:00:00Z,28.8667,-90.4833,100.0,28.53,11111222 
WAVCIS,ioos:station:WAVCIS:CSI06:1,2010-09-09T08:00:00Z,28.8667,-90.4833,100.0,28.49,11111222 
WAVCIS,ioos:station:WAVCIS:CSI06:1,2010-09-09T09:00:00Z,28.8667,-90.4833,100.0,28.47,11111222 
WAVCIS,ioos:station:WAVCIS:CSI06:1,2010-09-09T10:00:00Z,28.8667,-90.4833,100.0,28.44,11111222 
WAVCIS,ioos:station:WAVCIS:CSI06:1,2010-09-09T11:00:00Z,28.8667,-90.4833,100.0,28.46,11111222 
WAVCIS,ioos:station:WAVCIS:CSI06:1,2010-09-09T12:00:00Z,28.8667,-90.4833,100.0,28.45,11111222 
WAVCIS,ioos:station:WAVCIS:CSI06:1,2010-09-09T13:00:00Z,28.8667,-90.4833,100.0,28.58,11111222 
WAVCIS,ioos:station:WAVCIS:CSI06:1,2010-09-09T14:00:00Z,28.8667,-90.4833,100.0,28.63,11111222 
WAVCIS,ioos:station:WAVCIS:CSI06:1,2010-09-09T15:00:00Z,28.8667,-90.4833,100.0,28.67,11111222 
WAVCIS,ioos:station:WAVCIS:CSI06:1,2010-09-09T16:00:00Z,28.8667,-90.4833,100.0,28.7,11111222 
WAVCIS,ioos:station:WAVCIS:CSI06:1,2010-09-09T17:00:00Z,28.8667,-90.4833,100.0,28.74,11111222 
WAVCIS,ioos:station:WAVCIS:CSI06:1,2010-09-09T18:00:00Z,28.8667,-90.4833,100.0,28.81,11111222 
WAVCIS,ioos:station:WAVCIS:CSI06:1,2010-09-09T19:00:00Z,28.8667,-90.4833,100.0,28.83,11111222 
WAVCIS,ioos:station:WAVCIS:CSI06:1,2010-09-09T20:00:00Z,28.8667,-90.4833,100.0,28.82,11111222 
WAVCIS,ioos:station:WAVCIS:CSI06:1,2010-09-09T21:00:00Z,28.8667,-90.4833,100.0,28.8,11111222 
WAVCIS,ioos:station:WAVCIS:CSI06:1,2010-09-09T22:00:00Z,28.8667,-90.4833,100.0,28.96,11111222 
WAVCIS,ioos:station:WAVCIS:CSI06:1,2010-09-09T23:00:00Z,28.8667,-90.4833,100.0,28.84,11111222 
WAVCIS,ioos:station:WAVCIS:CSI06:1,2010-09-10T00:00:00Z,28.8667,-90.4833,100.0,29.24,11111222 
WAVCIS,ioos:station:WAVCIS:CSI06:1,2010-09-10T01:00:00Z,28.8667,-90.4833,100.0,29.0,11111222 
WAVCIS,ioos:station:WAVCIS:CSI06:1,2010-09-10T02:00:00Z,28.8667,-90.4833,100.0,29.04,11111222 
WAVCIS,ioos:station:WAVCIS:CSI06:1,2010-09-10T03:00:00Z,28.8667,-90.4833,100.0,28.99,11111222 
WAVCIS,ioos:station:WAVCIS:CSI06:1,2010-09-10T04:00:00Z,28.8667,-90.4833,100.0,29.02,11111222 
WAVCIS,ioos:station:WAVCIS:CSI06:1,2010-09-10T05:00:00Z,28.8667,-90.4833,100.0,29.11,11111222 
WAVCIS,ioos:station:WAVCIS:CSI06:1,2010-09-10T06:00:00Z,28.8667,-90.4833,100.0,29.07,11111222 
WAVCIS,ioos:station:WAVCIS:CSI06:1,2010-09-10T07:00:00Z,28.8667,-90.4833,100.0,29.08,11111222 
WAVCIS,ioos:station:WAVCIS:CSI06:1,2010-09-10T08:00:00Z,28.8667,-90.4833,100.0,29.09,11111222 
WAVCIS,ioos:station:WAVCIS:CSI06:1,2010-09-10T09:00:00Z,28.8667,-90.4833,100.0,29.16,11111222 
WAVCIS,ioos:station:WAVCIS:CSI06:1,2010-09-10T10:00:00Z,28.8667,-90.4833,100.0,29.19,11111222 
WAVCIS,ioos:station:WAVCIS:CSI06:1,2010-09-10T11:00:00Z,28.8667,-90.4833,100.0,29.24,11111222 
WAVCIS,ioos:station:WAVCIS:CSI06:1,2010-09-10T12:00:00Z,28.8667,-90.4833,100.0,29.25,11111222 
WAVCIS,ioos:station:WAVCIS:CSI06:1,2010-09-10T13:00:00Z,28.8667,-90.4833,100.0,29.25,11111222 
WAVCIS,ioos:station:WAVCIS:CSI06:1,2010-09-10T14:00:00Z,28.8667,-90.4833,100.0,29.66,11111222 
WAVCIS,ioos:station:WAVCIS:CSI06:1,2010-09-10T15:00:00Z,28.8667,-90.4833,100.0,29.42,11111222 
WAVCIS,ioos:station:WAVCIS:CSI06:1,2010-09-10T16:00:00Z,28.8667,-90.4833,100.0,29.27,11111222 
WAVCIS,ioos:station:WAVCIS:CSI06:1,2010-09-10T17:00:00Z,28.8667,-90.4833,100.0,29.26,11111222 
WAVCIS,ioos:station:WAVCIS:CSI06:1,2010-09-10T18:00:00Z,28.8667,-90.4833,100.0,29.34,11111222 
WAVCIS,ioos:station:WAVCIS:CSI06:1,2010-09-10T19:00:00Z,28.8667,-90.4833,100.0,29.53,11111222 
WAVCIS,ioos:station:WAVCIS:CSI06:1,2010-09-10T20:00:00Z,28.8667,-90.4833,100.0,29.61,11111222 
WAVCIS,ioos:station:WAVCIS:CSI06:1,2010-09-10T21:00:00Z,28.8667,-90.4833,100.0,29.57,11111222 
WAVCIS,ioos:station:WAVCIS:CSI06:1,2010-09-10T22:00:00Z,28.8667,-90.4833,100.0,29.46,11111222 
WAVCIS,ioos:station:WAVCIS:CSI06:1,2010-09-10T23:00:00Z,28.8667,-90.4833,100.0,29.48,11111222 
WAVCIS,ioos:station:WAVCIS:CSI06:1,2010-09-11T00:00:00Z,28.8667,-90.4833,100.0,29.49,11111222 
WAVCIS,ioos:station:WAVCIS:CSI06:1,2010-09-11T01:00:00Z,28.8667,-90.4833,100.0,29.47,11111222 
WAVCIS,ioos:station:WAVCIS:CSI06:1,2010-09-11T02:00:00Z,28.8667,-90.4833,100.0,29.47,11111222 
WAVCIS,ioos:station:WAVCIS:CSI06:1,2010-09-11T03:00:00Z,28.8667,-90.4833,100.0,29.47,11111222 
WAVCIS,ioos:station:WAVCIS:CSI06:1,2010-09-11T04:00:00Z,28.8667,-90.4833,100.0,29.51,11111222 
WAVCIS,ioos:station:WAVCIS:CSI06:1,2010-09-11T05:00:00Z,28.8667,-90.4833,100.0,29.47,11111222 
WAVCIS,ioos:station:WAVCIS:CSI06:1,2010-09-11T06:00:00Z,28.8667,-90.4833,100.0,29.48,11111222 
WAVCIS,ioos:station:WAVCIS:CSI06:1,2010-09-11T07:00:00Z,28.8667,-90.4833,100.0,29.48,11111222 
WAVCIS,ioos:station:WAVCIS:CSI06:1,2010-09-11T08:00:00Z,28.8667,-90.4833,100.0,29.48,11111222 
WAVCIS,ioos:station:WAVCIS:CSI06:1,2010-09-11T09:00:00Z,28.8667,-90.4833,100.0,29.49,11111222 
WAVCIS,ioos:station:WAVCIS:CSI06:1,2010-09-11T10:00:00Z,28.8667,-90.4833,100.0,29.49,11111222 
WAVCIS,ioos:station:WAVCIS:CSI06:1,2010-09-11T11:00:00Z,28.8667,-90.4833,100.0,29.53,11111222 